Location: Étouvelles
(49.5207°N, 3.5808°E)
Time: 16:38:53
(UTC+00:00)

Cosmos 1741 Rocket - Pass Details

Date: 03 February 2023
Orbit: 761 x 781 km, 74.0° (Epoch: 25 March)

Event Time Altitude Azimuth Distance (km) Brightness Sun altitude
Rises 18:30:37 0° 182° (S) 3,248 7.3 -17.4°
Reaches altitude 10° 18:33:03 10° 176° (S) 2,327 6.5 -17.8°
Maximum altitude 18:38:04 45° 105° (ESE) 1,056 4.3 -18.6°
Enters shadow 18:40:12 30° 54° (NE) 1,380 4.9 -19.0°
